Year,Month,Day,Hour,Minute,Value (Times are PST for temperature in C)
2015,08,07,00,00,15.60
2015,08,07,00,01,15.60
2015,08,07,00,02,15.60
2015,08,07,00,03,15.60
2015,08,07,00,04,15.60
2015,08,07,00,05,15.60
2015,08,07,00,06,15.60
2015,08,07,00,07,15.60
2015,08,07,00,08,15.60
2015,08,07,00,09,15.60
2015,08,07,00,10,15.60
2015,08,07,00,11,15.60
2015,08,07,00,12,15.60
2015,08,07,00,13,15.60
2015,08,07,00,14,15.60
2015,08,07,00,15,15.60
2015,08,07,00,16,15.60
2015,08,07,00,17,15.60
2015,08,07,00,18,15.60
2015,08,07,00,19,15.60
2015,08,07,00,20,15.60
2015,08,07,00,21,15.60
2015,08,07,00,22,15.60
2015,08,07,00,23,15.60
2015,08,07,00,24,15.60
2015,08,07,00,25,15.60
2015,08,07,00,26,15.60
2015,08,07,00,27,15.60
2015,08,07,00,28,15.60
2015,08,07,00,29,15.60
2015,08,07,00,30,15.60
2015,08,07,00,31,15.50
2015,08,07,00,32,15.50
2015,08,07,00,33,15.50
2015,08,07,00,34,15.50
2015,08,07,00,35,15.50
2015,08,07,00,36,15.50
2015,08,07,00,37,15.40
2015,08,07,00,38,15.40
2015,08,07,00,39,15.40
2015,08,07,00,40,15.40
2015,08,07,00,41,15.40
2015,08,07,00,42,15.40
2015,08,07,00,43,15.40
2015,08,07,00,44,15.40
2015,08,07,00,45,15.40
2015,08,07,00,46,15.40
2015,08,07,00,47,15.30
2015,08,07,00,48,15.30
2015,08,07,00,49,15.30
2015,08,07,00,50,15.30
2015,08,07,00,51,15.30
2015,08,07,00,52,15.30
2015,08,07,00,53,15.30
2015,08,07,00,54,15.30
2015,08,07,00,55,15.30
2015,08,07,00,56,15.30
2015,08,07,00,57,15.20
2015,08,07,00,58,15.20
2015,08,07,00,59,15.20
2015,08,07,01,00,15.20
2015,08,07,01,01,15.20
2015,08,07,01,02,15.30
2015,08,07,01,03,15.30
2015,08,07,01,04,15.30
2015,08,07,01,05,15.30
2015,08,07,01,06,15.30
2015,08,07,01,07,15.30
2015,08,07,01,08,15.30
2015,08,07,01,09,15.30
2015,08,07,01,10,15.30
2015,08,07,01,11,15.30
2015,08,07,01,12,15.30
2015,08,07,01,13,15.40
2015,08,07,01,14,15.30
2015,08,07,01,15,15.40
2015,08,07,01,16,15.40
2015,08,07,01,17,15.40
2015,08,07,01,18,15.30
2015,08,07,01,19,15.40
2015,08,07,01,20,15.40
2015,08,07,01,21,15.30
2015,08,07,01,22,15.30
2015,08,07,01,23,15.30
2015,08,07,01,24,15.30
2015,08,07,01,25,15.30
2015,08,07,01,26,15.30
2015,08,07,01,27,15.30
2015,08,07,01,28,15.30
2015,08,07,01,29,15.30
2015,08,07,01,30,15.30
2015,08,07,01,31,15.30
2015,08,07,01,32,15.30
2015,08,07,01,33,15.30
2015,08,07,01,34,15.30
2015,08,07,01,35,15.30
2015,08,07,01,36,15.30
2015,08,07,01,37,15.30
2015,08,07,01,38,15.20
2015,08,07,01,39,15.20
2015,08,07,01,40,15.20
2015,08,07,01,41,15.20
2015,08,07,01,42,15.20
2015,08,07,01,43,15.20
2015,08,07,01,44,15.20
2015,08,07,01,45,15.20
2015,08,07,01,46,15.10
2015,08,07,01,47,15.10
2015,08,07,01,48,15.10
2015,08,07,01,49,15.10
2015,08,07,01,50,15.10
2015,08,07,01,51,15.10
2015,08,07,01,52,15.10
2015,08,07,01,53,15.00
2015,08,07,01,54,15.00
2015,08,07,01,55,15.00
2015,08,07,01,56,15.00
2015,08,07,01,57,15.00
2015,08,07,01,58,15.00
2015,08,07,01,59,14.90
2015,08,07,02,00,14.90
2015,08,07,02,01,14.90
2015,08,07,02,02,14.90
2015,08,07,02,03,14.90
2015,08,07,02,04,14.90
2015,08,07,02,05,14.90
2015,08,07,02,06,14.90
2015,08,07,02,07,14.90
2015,08,07,02,08,14.90
2015,08,07,02,09,14.90
2015,08,07,02,10,14.90
2015,08,07,02,11,14.90
2015,08,07,02,12,14.80
2015,08,07,02,13,14.80
2015,08,07,02,14,14.80
2015,08,07,02,15,14.80
2015,08,07,02,16,14.80
2015,08,07,02,17,14.80
2015,08,07,02,18,14.80
2015,08,07,02,19,14.80
2015,08,07,02,20,14.80
2015,08,07,02,21,14.70
2015,08,07,02,22,14.70
2015,08,07,02,23,14.70
2015,08,07,02,24,14.70
2015,08,07,02,25,14.70
2015,08,07,02,26,14.70
2015,08,07,02,27,14.70
2015,08,07,02,28,14.70
2015,08,07,02,29,14.70
2015,08,07,02,30,14.60
2015,08,07,02,31,14.60
2015,08,07,02,32,14.60
2015,08,07,02,33,14.50
2015,08,07,02,34,14.50
2015,08,07,02,35,14.50
2015,08,07,02,36,14.40
2015,08,07,02,37,14.40
2015,08,07,02,38,14.40
2015,08,07,02,39,14.40
2015,08,07,02,40,14.40
2015,08,07,02,41,14.40
2015,08,07,02,42,14.40
2015,08,07,02,43,14.40
2015,08,07,02,44,14.40
2015,08,07,02,45,14.40
2015,08,07,02,46,14.40
2015,08,07,02,47,14.40
2015,08,07,02,48,14.40
2015,08,07,02,49,14.40
2015,08,07,02,50,14.40
2015,08,07,02,51,14.40
2015,08,07,02,52,14.40
2015,08,07,02,53,14.40
2015,08,07,02,54,14.40
2015,08,07,02,55,14.40
2015,08,07,02,56,14.40
2015,08,07,02,57,14.40
2015,08,07,02,58,14.40
2015,08,07,02,59,14.40
2015,08,07,03,00,14.40
2015,08,07,03,01,14.40
2015,08,07,03,02,14.40
2015,08,07,03,06,14.40
2015,08,07,03,07,14.40
2015,08,07,03,08,14.40
2015,08,07,03,09,14.40
2015,08,07,03,10,14.40
2015,08,07,03,11,14.40
2015,08,07,03,12,14.40
2015,08,07,03,13,14.40
2015,08,07,03,14,14.40
2015,08,07,03,15,14.40
2015,08,07,03,16,14.40
2015,08,07,03,17,14.40
2015,08,07,03,18,14.30
2015,08,07,03,19,14.30
2015,08,07,03,20,14.30
2015,08,07,03,21,14.30
2015,08,07,03,22,14.30
2015,08,07,03,23,14.30
2015,08,07,03,24,14.20
2015,08,07,03,25,14.20
2015,08,07,03,26,14.20
2015,08,07,03,27,14.20
2015,08,07,03,28,14.20
2015,08,07,03,29,14.20
2015,08,07,03,30,14.20
2015,08,07,03,31,14.20
2015,08,07,03,32,14.20
2015,08,07,03,33,14.20
2015,08,07,03,34,14.20
2015,08,07,03,35,14.20
2015,08,07,03,36,14.20
2015,08,07,03,37,14.10
2015,08,07,03,38,14.10
2015,08,07,03,39,14.10
2015,08,07,03,40,14.10
2015,08,07,03,41,14.10
2015,08,07,03,42,14.10
2015,08,07,03,43,14.00
2015,08,07,03,44,14.00
2015,08,07,03,45,14.00
2015,08,07,03,46,14.00
2015,08,07,03,47,14.00
2015,08,07,03,48,14.00
2015,08,07,03,49,13.90
2015,08,07,03,50,13.90
2015,08,07,03,51,13.90
2015,08,07,03,52,13.90
2015,08,07,03,53,13.90
2015,08,07,03,54,13.90
2015,08,07,03,55,13.90
2015,08,07,03,56,13.80
2015,08,07,03,57,13.80
2015,08,07,03,58,13.80
2015,08,07,03,59,13.80
2015,08,07,04,00,13.80
2015,08,07,04,01,13.80
2015,08,07,04,02,13.80
2015,08,07,04,03,13.80
2015,08,07,04,04,13.80
2015,08,07,04,05,13.70
2015,08,07,04,06,13.70
2015,08,07,04,07,13.70
2015,08,07,04,08,13.70
2015,08,07,04,09,13.70
2015,08,07,04,10,13.70
2015,08,07,04,11,13.70
2015,08,07,04,12,13.70
2015,08,07,04,13,13.70
2015,08,07,04,14,13.70
2015,08,07,04,15,13.70
2015,08,07,04,16,13.60
2015,08,07,04,17,13.60
2015,08,07,04,18,13.60
2015,08,07,04,19,13.60
2015,08,07,04,20,13.60
2015,08,07,04,21,13.60
2015,08,07,04,22,13.60
2015,08,07,04,23,13.60
2015,08,07,04,24,13.60
2015,08,07,04,25,13.60
2015,08,07,04,26,13.60
2015,08,07,04,27,13.60
2015,08,07,04,28,13.60
2015,08,07,04,29,13.60
2015,08,07,04,30,13.60
2015,08,07,04,31,13.60
2015,08,07,04,32,13.60
2015,08,07,04,33,13.60
2015,08,07,04,34,13.60
2015,08,07,04,35,13.60
2015,08,07,04,36,13.60
2015,08,07,04,37,13.60
2015,08,07,04,38,13.60
2015,08,07,04,39,13.60
2015,08,07,04,40,13.60
2015,08,07,04,41,13.60
2015,08,07,04,42,13.60
2015,08,07,04,43,13.60
2015,08,07,04,44,13.60
2015,08,07,04,45,13.60
2015,08,07,04,46,13.60
2015,08,07,04,47,13.60
2015,08,07,04,48,13.60
2015,08,07,04,49,13.60
2015,08,07,04,50,13.60
2015,08,07,04,51,13.50
2015,08,07,04,52,13.50
2015,08,07,04,53,13.50
2015,08,07,04,54,13.50
2015,08,07,04,55,13.40
2015,08,07,04,56,13.40
2015,08,07,04,57,13.40
2015,08,07,04,58,13.40
2015,08,07,04,59,13.40
2015,08,07,05,00,13.30
2015,08,07,05,01,13.30
2015,08,07,05,02,13.30
2015,08,07,05,03,13.30
2015,08,07,05,04,13.30
2015,08,07,05,05,13.30
2015,08,07,05,06,13.30
2015,08,07,05,07,13.30
2015,08,07,05,08,13.30
2015,08,07,05,09,13.30
2015,08,07,05,10,13.30
2015,08,07,05,11,13.30
2015,08,07,05,12,13.30
2015,08,07,05,13,13.30
2015,08,07,05,14,13.30
2015,08,07,05,15,13.20
2015,08,07,05,16,13.20
2015,08,07,05,17,13.20
2015,08,07,05,18,13.20
2015,08,07,05,19,13.20
2015,08,07,05,20,13.20
2015,08,07,05,21,13.20
2015,08,07,05,22,13.10
2015,08,07,05,23,13.10
2015,08,07,05,24,13.10
2015,08,07,05,25,13.10
2015,08,07,05,26,13.10
2015,08,07,05,27,13.10
2015,08,07,05,28,13.10
2015,08,07,05,29,13.10
2015,08,07,05,30,13.10
2015,08,07,05,31,13.10
2015,08,07,05,32,13.10
2015,08,07,05,33,13.00
2015,08,07,05,34,13.00
2015,08,07,05,35,13.00
2015,08,07,05,36,13.00
2015,08,07,05,37,13.00
2015,08,07,05,38,13.00
2015,08,07,05,39,13.00
2015,08,07,05,40,13.00
2015,08,07,05,41,13.00
2015,08,07,05,42,13.00
2015,08,07,05,43,13.00
2015,08,07,05,44,13.00
2015,08,07,05,45,13.00
2015,08,07,05,46,13.00
2015,08,07,05,47,13.00
2015,08,07,05,48,12.90
2015,08,07,05,49,13.00
2015,08,07,05,50,12.90
2015,08,07,05,51,12.90
2015,08,07,05,52,12.90
2015,08,07,05,53,12.90
2015,08,07,05,54,12.90
2015,08,07,05,55,12.90
2015,08,07,05,56,12.90
2015,08,07,05,57,12.90
2015,08,07,05,58,12.90
2015,08,07,05,59,12.90
2015,08,07,06,00,12.90
2015,08,07,06,01,12.90
2015,08,07,06,02,12.90
2015,08,07,06,03,12.90
2015,08,07,06,04,12.90
2015,08,07,06,05,12.90
2015,08,07,06,06,12.90
2015,08,07,06,07,12.90
2015,08,07,06,08,12.90
2015,08,07,06,09,12.90
2015,08,07,06,10,12.90
2015,08,07,06,11,12.90
2015,08,07,06,12,12.90
2015,08,07,06,13,12.90
2015,08,07,06,14,12.90
2015,08,07,06,15,13.00
2015,08,07,06,16,13.00
2015,08,07,06,17,13.00
2015,08,07,06,18,13.00
2015,08,07,06,19,13.00
2015,08,07,06,20,13.10
2015,08,07,06,21,13.10
2015,08,07,06,22,13.10
2015,08,07,06,23,13.10
2015,08,07,06,24,13.10
2015,08,07,06,25,13.10
2015,08,07,06,26,13.10
2015,08,07,06,27,13.10
2015,08,07,06,28,13.10
2015,08,07,06,29,13.10
2015,08,07,06,30,13.10
2015,08,07,06,31,13.10
2015,08,07,06,32,13.20
2015,08,07,06,33,13.20
2015,08,07,06,34,13.20
2015,08,07,06,35,13.20
2015,08,07,06,36,13.20
2015,08,07,06,37,13.20
2015,08,07,06,38,13.20
2015,08,07,06,39,13.20
2015,08,07,06,40,13.20
2015,08,07,06,41,13.20
2015,08,07,06,42,13.20
2015,08,07,06,43,13.20
2015,08,07,06,44,13.30
2015,08,07,06,45,13.30
2015,08,07,06,46,13.30
2015,08,07,06,47,13.30
2015,08,07,06,48,13.30
2015,08,07,06,49,13.30
2015,08,07,06,50,13.30
2015,08,07,06,51,13.30
2015,08,07,06,52,13.30
2015,08,07,06,53,13.30
2015,08,07,06,54,13.40
2015,08,07,06,55,13.40
2015,08,07,06,56,13.40
2015,08,07,06,57,13.40
2015,08,07,06,58,13.40
2015,08,07,06,59,13.40
2015,08,07,07,00,13.40
2015,08,07,07,01,13.40
2015,08,07,07,02,13.40
2015,08,07,07,03,13.40
2015,08,07,07,04,13.40
2015,08,07,07,05,13.40
2015,08,07,07,06,13.40
2015,08,07,07,07,13.40
2015,08,07,07,08,13.50
2015,08,07,07,09,13.50
2015,08,07,07,10,13.50
2015,08,07,07,11,13.50
2015,08,07,07,12,13.60
2015,08,07,07,13,13.60
2015,08,07,07,14,13.70
2015,08,07,07,15,13.70
2015,08,07,07,16,13.80
2015,08,07,07,17,13.90
2015,08,07,07,18,13.90
2015,08,07,07,19,14.00
2015,08,07,07,20,14.10
2015,08,07,07,21,14.20
2015,08,07,07,22,14.30
2015,08,07,07,23,14.40
2015,08,07,07,24,14.50
2015,08,07,07,25,14.60
2015,08,07,07,26,14.70
2015,08,07,07,27,14.80
2015,08,07,07,28,14.90
2015,08,07,07,29,15.00
2015,08,07,07,30,15.10
2015,08,07,07,31,15.20
2015,08,07,07,32,15.30
2015,08,07,07,33,15.40
2015,08,07,07,34,15.40
2015,08,07,07,35,15.50
2015,08,07,07,36,15.60
2015,08,07,07,37,15.70
2015,08,07,07,38,15.70
2015,08,07,07,39,15.80
2015,08,07,07,40,15.80
2015,08,07,07,41,15.80
2015,08,07,07,42,15.80
2015,08,07,07,43,15.80
2015,08,07,07,44,15.80
2015,08,07,07,45,15.80
2015,08,07,07,46,15.80
2015,08,07,07,47,15.80
2015,08,07,07,48,15.80
2015,08,07,07,49,15.80
2015,08,07,07,50,15.80
2015,08,07,07,51,15.70
2015,08,07,07,52,15.70
2015,08,07,07,53,15.70
2015,08,07,07,54,15.70
2015,08,07,07,55,15.70
2015,08,07,07,56,15.80
2015,08,07,07,57,15.80
2015,08,07,07,58,15.80
2015,08,07,07,59,15.80
2015,08,07,08,00,15.80
2015,08,07,08,01,15.80
2015,08,07,08,02,15.80
2015,08,07,08,03,15.80
2015,08,07,08,04,15.70
2015,08,07,08,05,15.70
2015,08,07,08,06,15.70
2015,08,07,08,07,15.70
2015,08,07,08,08,15.70
2015,08,07,08,09,15.70
2015,08,07,08,10,15.70
2015,08,07,08,11,15.70
2015,08,07,08,12,15.70
2015,08,07,08,13,15.60
2015,08,07,08,14,15.60
2015,08,07,08,15,15.60
2015,08,07,08,16,15.60
2015,08,07,08,17,15.60
2015,08,07,08,18,15.60
2015,08,07,08,19,15.60
2015,08,07,08,20,15.60
2015,08,07,08,21,15.60
2015,08,07,08,22,15.60
2015,08,07,08,23,15.70
2015,08,07,08,24,15.70
2015,08,07,08,25,15.70
2015,08,07,08,26,15.80
2015,08,07,08,27,15.80
2015,08,07,08,28,15.80
2015,08,07,08,29,15.90
2015,08,07,08,30,15.90
2015,08,07,08,31,16.00
2015,08,07,08,32,16.10
2015,08,07,08,33,16.10
2015,08,07,08,34,16.20
2015,08,07,08,35,16.20
2015,08,07,08,36,16.30
2015,08,07,08,37,16.30
2015,08,07,08,38,16.40
2015,08,07,08,39,16.40
2015,08,07,08,40,16.50
2015,08,07,08,41,16.50
2015,08,07,08,42,16.60
2015,08,07,08,43,16.60
2015,08,07,08,44,16.70
2015,08,07,08,45,16.70
2015,08,07,08,46,16.80
2015,08,07,08,47,16.80
2015,08,07,08,48,16.90
2015,08,07,08,49,16.90
2015,08,07,08,50,16.90
2015,08,07,08,51,16.90
2015,08,07,08,52,16.90
2015,08,07,08,53,16.90
2015,08,07,08,54,16.90
2015,08,07,08,55,17.00
2015,08,07,08,56,17.00
2015,08,07,08,57,17.00
2015,08,07,08,58,17.00
2015,08,07,08,59,17.10
2015,08,07,09,00,17.10
2015,08,07,09,01,17.20
2015,08,07,09,02,17.20
2015,08,07,09,03,17.30
2015,08,07,09,04,17.30
2015,08,07,09,05,17.40
2015,08,07,09,06,17.40
2015,08,07,09,07,17.40
2015,08,07,09,08,17.50
2015,08,07,09,09,17.50
2015,08,07,09,10,17.50
2015,08,07,09,11,17.50
2015,08,07,09,12,17.40
2015,08,07,09,13,17.40
2015,08,07,09,14,17.40
2015,08,07,09,15,17.40
2015,08,07,09,16,17.40
2015,08,07,09,17,17.40
2015,08,07,09,18,17.40
2015,08,07,09,19,17.50
2015,08,07,09,20,17.50
2015,08,07,09,21,17.50
2015,08,07,09,22,17.60
2015,08,07,09,23,17.60
2015,08,07,09,24,17.70
2015,08,07,09,25,17.70
2015,08,07,09,26,17.80
2015,08,07,09,27,17.80
2015,08,07,09,28,18.00
2015,08,07,09,29,18.10
2015,08,07,09,30,18.20
2015,08,07,09,31,18.20
2015,08,07,09,32,18.30
2015,08,07,09,33,18.30
2015,08,07,09,34,18.40
2015,08,07,09,35,18.50
2015,08,07,09,36,18.50
2015,08,07,09,37,18.70
2015,08,07,09,38,18.80
2015,08,07,09,39,18.80
2015,08,07,09,40,18.80
2015,08,07,09,41,18.80
2015,08,07,09,42,18.90
2015,08,07,09,43,18.90
2015,08,07,09,44,18.90
2015,08,07,09,45,18.90
2015,08,07,09,46,19.00
2015,08,07,09,47,19.00
2015,08,07,09,48,19.10
2015,08,07,09,49,19.10
2015,08,07,09,50,19.10
2015,08,07,09,51,19.10
2015,08,07,09,52,19.00
2015,08,07,09,53,19.00
2015,08,07,09,54,19.00
2015,08,07,09,55,19.00
2015,08,07,09,56,19.10
2015,08,07,09,57,19.20
2015,08,07,09,58,19.20
2015,08,07,09,59,19.20
2015,08,07,10,00,19.30
2015,08,07,10,01,19.30
2015,08,07,10,02,19.30
2015,08,07,10,03,19.30
2015,08,07,10,04,19.30
2015,08,07,10,05,19.40
2015,08,07,10,06,19.40
2015,08,07,10,07,19.50
2015,08,07,10,08,19.50
2015,08,07,10,09,19.50
2015,08,07,10,10,19.60
2015,08,07,10,11,19.60
2015,08,07,10,12,19.50
2015,08,07,10,13,19.50
2015,08,07,10,14,19.50
2015,08,07,10,15,19.50
2015,08,07,10,16,19.50
2015,08,07,10,17,19.50
2015,08,07,10,18,19.60
2015,08,07,10,19,19.70
2015,08,07,10,20,19.70
2015,08,07,10,21,19.70
2015,08,07,10,22,19.80
2015,08,07,10,23,19.80
2015,08,07,10,24,19.90
2015,08,07,10,25,19.90
2015,08,07,10,26,20.00
2015,08,07,10,27,20.00
2015,08,07,10,28,20.10
2015,08,07,10,29,20.10
2015,08,07,10,30,20.10
2015,08,07,10,31,20.10
2015,08,07,10,32,20.10
2015,08,07,10,33,20.20
2015,08,07,10,34,20.20
2015,08,07,10,35,20.30
2015,08,07,10,36,20.40
2015,08,07,10,37,20.50
2015,08,07,10,38,20.50
2015,08,07,10,39,20.50
2015,08,07,10,40,20.60
2015,08,07,10,41,20.60
2015,08,07,10,42,20.70
2015,08,07,10,43,20.70
2015,08,07,10,44,20.80
2015,08,07,10,45,20.80
2015,08,07,10,46,20.80
2015,08,07,10,47,20.90
2015,08,07,10,48,20.90
2015,08,07,10,49,21.00
2015,08,07,10,50,21.10
2015,08,07,10,51,21.20
2015,08,07,10,52,21.30
2015,08,07,10,53,21.30
2015,08,07,10,54,21.30
2015,08,07,10,55,21.30
2015,08,07,10,56,21.30
2015,08,07,10,57,21.20
2015,08,07,10,58,21.20
2015,08,07,10,59,21.30
2015,08,07,11,00,21.30
2015,08,07,11,01,21.30
2015,08,07,11,02,21.40
2015,08,07,11,03,21.30
2015,08,07,11,04,21.40
2015,08,07,11,05,21.40
2015,08,07,11,06,21.40
2015,08,07,11,07,21.40
2015,08,07,11,08,21.50
2015,08,07,11,09,21.50
2015,08,07,11,10,21.40
2015,08,07,11,11,21.40
2015,08,07,11,12,21.40
2015,08,07,11,13,21.40
2015,08,07,11,14,21.50
2015,08,07,11,15,21.60
2015,08,07,11,16,21.70
2015,08,07,11,17,21.70
2015,08,07,11,18,21.70
2015,08,07,11,19,21.80
2015,08,07,11,20,21.80
2015,08,07,11,21,21.80
2015,08,07,11,22,21.80
2015,08,07,11,23,21.80
2015,08,07,11,24,21.80
2015,08,07,11,25,21.80
2015,08,07,11,26,21.90
2015,08,07,11,27,21.90
2015,08,07,11,28,21.90
2015,08,07,11,29,22.00
2015,08,07,11,30,22.10
2015,08,07,11,31,22.10
2015,08,07,11,32,22.10
2015,08,07,11,33,22.10
2015,08,07,11,34,22.20
2015,08,07,11,35,22.10
2015,08,07,11,36,22.10
2015,08,07,11,37,22.10
2015,08,07,11,38,22.10
2015,08,07,11,39,22.20
2015,08,07,11,40,22.30
2015,08,07,11,41,22.40
2015,08,07,11,42,22.50
2015,08,07,11,43,22.60
2015,08,07,11,44,22.70
2015,08,07,11,45,22.70
2015,08,07,11,46,22.70
2015,08,07,11,47,22.70
2015,08,07,11,48,22.70
2015,08,07,11,49,22.70
2015,08,07,11,50,22.70
2015,08,07,11,51,22.80
2015,08,07,11,52,22.80
2015,08,07,11,53,22.90
2015,08,07,11,54,22.90
2015,08,07,11,55,23.00
2015,08,07,11,56,23.10
2015,08,07,11,57,23.10
2015,08,07,11,58,23.10
2015,08,07,11,59,23.00
2015,08,07,12,00,23.00
2015,08,07,12,01,23.00
2015,08,07,12,02,23.00
2015,08,07,12,03,23.00
2015,08,07,12,04,23.10
2015,08,07,12,05,23.20
2015,08,07,12,06,23.30
2015,08,07,12,07,23.50
2015,08,07,12,08,23.70
2015,08,07,12,09,23.80
2015,08,07,12,10,23.90
2015,08,07,12,11,24.00
2015,08,07,12,12,24.10
2015,08,07,12,13,24.10
2015,08,07,12,14,24.20
2015,08,07,12,15,24.20
2015,08,07,12,16,24.30
2015,08,07,12,17,24.40
2015,08,07,12,18,24.50
2015,08,07,12,19,24.50
2015,08,07,12,20,24.50
2015,08,07,12,21,24.50
2015,08,07,12,22,24.40
2015,08,07,12,23,24.40
2015,08,07,12,24,24.30
2015,08,07,12,25,24.20
2015,08,07,12,26,24.20
2015,08,07,12,27,24.20
2015,08,07,12,28,24.20
2015,08,07,12,29,24.20
2015,08,07,12,30,24.20
2015,08,07,12,31,24.10
2015,08,07,12,32,24.10
2015,08,07,12,33,24.00
2015,08,07,12,34,24.00
2015,08,07,12,35,23.90
2015,08,07,12,36,23.80
2015,08,07,12,37,23.80
2015,08,07,12,38,23.80
2015,08,07,12,39,23.70
2015,08,07,12,40,23.70
2015,08,07,12,41,23.70
2015,08,07,12,42,23.70
2015,08,07,12,43,23.70
2015,08,07,12,44,23.70
2015,08,07,12,45,23.80
2015,08,07,12,46,23.80
2015,08,07,12,47,23.80
2015,08,07,12,48,23.80
2015,08,07,12,49,23.90
2015,08,07,12,50,23.90
2015,08,07,12,51,23.90
2015,08,07,12,52,23.90
2015,08,07,12,53,24.00
2015,08,07,12,54,24.00
2015,08,07,12,55,24.00
2015,08,07,12,56,24.00
2015,08,07,12,57,24.10
2015,08,07,12,58,24.10
2015,08,07,12,59,24.10
2015,08,07,13,00,24.10
2015,08,07,13,01,24.20
2015,08,07,13,02,24.20
2015,08,07,13,03,24.30
2015,08,07,13,04,24.30
2015,08,07,13,05,24.30
2015,08,07,13,06,24.30
2015,08,07,13,07,24.20
2015,08,07,13,08,24.20
2015,08,07,13,09,24.20
2015,08,07,13,10,24.20
2015,08,07,13,11,24.20
2015,08,07,13,12,24.20
2015,08,07,13,13,24.20
2015,08,07,13,14,24.20
2015,08,07,13,15,24.20
2015,08,07,13,16,24.20
2015,08,07,13,17,24.20
2015,08,07,13,18,24.30
2015,08,07,13,19,24.30
2015,08,07,13,20,24.30
2015,08,07,13,21,24.30
2015,08,07,13,22,24.30
2015,08,07,13,23,24.30
2015,08,07,13,24,24.30
2015,08,07,13,25,24.30
2015,08,07,13,26,24.30
2015,08,07,13,27,24.30
2015,08,07,13,28,24.30
2015,08,07,13,29,24.30
2015,08,07,13,30,24.30
2015,08,07,13,31,24.30
2015,08,07,13,32,24.30
2015,08,07,13,33,24.30
2015,08,07,13,34,24.40
2015,08,07,13,35,24.40
2015,08,07,13,36,24.40
2015,08,07,13,37,24.50
2015,08,07,13,38,24.50
2015,08,07,13,39,24.60
2015,08,07,13,40,24.60
2015,08,07,13,41,24.60
2015,08,07,13,42,24.70
2015,08,07,13,43,24.70
2015,08,07,13,44,24.70
2015,08,07,13,45,24.60
2015,08,07,13,46,24.60
2015,08,07,13,47,24.60
2015,08,07,13,48,24.60
2015,08,07,13,49,24.60
2015,08,07,13,50,24.70
2015,08,07,13,51,24.70
2015,08,07,13,52,24.70
2015,08,07,13,53,24.60
2015,08,07,13,54,24.60
2015,08,07,13,55,24.60
2015,08,07,13,56,24.50
2015,08,07,13,57,24.40
2015,08,07,13,58,24.40
2015,08,07,13,59,24.40
2015,08,07,14,00,24.40
2015,08,07,14,01,24.40
2015,08,07,14,02,24.40
2015,08,07,14,03,24.40
2015,08,07,14,04,24.50
2015,08,07,14,05,24.50
2015,08,07,14,06,24.60
2015,08,07,14,07,24.60
2015,08,07,14,08,24.70
2015,08,07,14,09,24.70
2015,08,07,14,10,24.70
2015,08,07,14,11,24.70
2015,08,07,14,12,24.70
2015,08,07,14,13,24.80
2015,08,07,14,14,24.70
2015,08,07,14,15,24.70
2015,08,07,14,16,24.60
2015,08,07,14,17,24.60
2015,08,07,14,18,24.60
2015,08,07,14,19,24.70
2015,08,07,14,20,24.70
2015,08,07,14,21,24.70
2015,08,07,14,22,24.70
2015,08,07,14,23,24.70
2015,08,07,14,24,24.70
2015,08,07,14,25,24.70
2015,08,07,14,26,24.70
2015,08,07,14,27,24.60
2015,08,07,14,28,24.60
2015,08,07,14,29,24.60
2015,08,07,14,30,24.60
2015,08,07,14,31,24.60
2015,08,07,14,32,24.60
2015,08,07,14,33,24.60
2015,08,07,14,34,24.70
2015,08,07,14,35,24.70
2015,08,07,14,36,24.80
2015,08,07,14,37,24.90
2015,08,07,14,38,24.90
2015,08,07,14,39,25.00
2015,08,07,14,40,25.10
2015,08,07,14,41,25.10
2015,08,07,14,42,25.10
2015,08,07,14,43,25.10
2015,08,07,14,44,25.10
2015,08,07,14,45,25.10
2015,08,07,14,46,25.20
2015,08,07,14,47,25.10
2015,08,07,14,48,25.00
2015,08,07,14,49,24.90
2015,08,07,14,50,24.90
2015,08,07,14,51,24.80
2015,08,07,14,52,24.80
2015,08,07,14,53,24.80
2015,08,07,14,54,24.80
2015,08,07,14,55,24.80
2015,08,07,14,56,24.80
2015,08,07,14,57,24.70
2015,08,07,14,58,24.70
2015,08,07,14,59,24.70
2015,08,07,15,00,24.70
2015,08,07,15,01,24.70
2015,08,07,15,02,24.70
2015,08,07,15,03,24.70
2015,08,07,15,04,24.80
2015,08,07,15,05,24.80
2015,08,07,15,06,24.80
2015,08,07,15,07,24.80
2015,08,07,15,08,24.70
2015,08,07,15,09,24.70
2015,08,07,15,10,24.70
2015,08,07,15,11,24.60
2015,08,07,15,12,24.60
2015,08,07,15,13,24.50
2015,08,07,15,14,24.40
2015,08,07,15,15,24.30
2015,08,07,15,16,24.30
2015,08,07,15,17,24.20
2015,08,07,15,18,24.20
2015,08,07,15,19,24.20
2015,08,07,15,20,24.20
2015,08,07,15,21,24.20
2015,08,07,15,22,24.20
2015,08,07,15,23,24.20
2015,08,07,15,24,24.20
2015,08,07,15,25,24.20
2015,08,07,15,26,24.20
2015,08,07,15,27,24.20
2015,08,07,15,28,24.20
2015,08,07,15,29,24.20
2015,08,07,15,30,24.20
2015,08,07,15,31,24.20
2015,08,07,15,32,24.20
2015,08,07,15,33,24.20
2015,08,07,15,34,24.20
2015,08,07,15,35,24.30
2015,08,07,15,36,24.30
2015,08,07,15,37,24.30
2015,08,07,15,38,24.30
2015,08,07,15,39,24.40
2015,08,07,15,40,24.40
2015,08,07,15,41,24.40
2015,08,07,15,42,24.40
2015,08,07,15,43,24.40
2015,08,07,15,44,24.40
2015,08,07,15,45,24.40
2015,08,07,15,46,24.30
2015,08,07,15,47,24.40
2015,08,07,15,48,24.40
2015,08,07,15,49,24.40
2015,08,07,15,50,24.40
2015,08,07,15,51,24.40
2015,08,07,15,52,24.40
2015,08,07,15,53,24.40
2015,08,07,15,54,24.40
2015,08,07,15,55,24.40
2015,08,07,15,56,24.40
2015,08,07,15,57,24.40
2015,08,07,15,58,24.40
2015,08,07,15,59,24.40
2015,08,07,16,00,24.40
2015,08,07,16,01,24.40
2015,08,07,16,02,24.40
2015,08,07,16,03,24.40
2015,08,07,16,04,24.40
2015,08,07,16,05,24.30
2015,08,07,16,06,24.30
2015,08,07,16,07,24.30
2015,08,07,16,08,24.30
2015,08,07,16,09,24.30
2015,08,07,16,10,24.30
2015,08,07,16,11,24.20
2015,08,07,16,12,24.30
2015,08,07,16,13,24.30
2015,08,07,16,14,24.30
2015,08,07,16,15,24.30
2015,08,07,16,16,24.30
2015,08,07,16,17,24.30
2015,08,07,16,18,24.30
2015,08,07,16,19,24.30
2015,08,07,16,20,24.30
2015,08,07,16,21,24.30
2015,08,07,16,22,24.30
2015,08,07,16,23,24.40
2015,08,07,16,24,24.40
2015,08,07,16,25,24.40
2015,08,07,16,26,24.40
2015,08,07,16,27,24.40
2015,08,07,16,28,24.40
2015,08,07,16,29,24.40
2015,08,07,16,30,24.40
2015,08,07,16,31,24.40
2015,08,07,16,32,24.40
2015,08,07,16,33,24.40
2015,08,07,16,34,24.40
2015,08,07,16,35,24.40
2015,08,07,16,36,24.40
2015,08,07,16,37,24.40
2015,08,07,16,38,24.40
2015,08,07,16,39,24.40
2015,08,07,16,40,24.50
2015,08,07,16,41,24.40
2015,08,07,16,42,24.40
2015,08,07,16,43,24.40
2015,08,07,16,44,24.40
2015,08,07,16,45,24.40
2015,08,07,16,46,24.40
2015,08,07,16,47,24.40
2015,08,07,16,48,24.50
2015,08,07,16,49,24.60
2015,08,07,16,50,24.70
2015,08,07,16,51,24.80
2015,08,07,16,52,24.90
2015,08,07,16,53,24.90
2015,08,07,16,54,25.00
2015,08,07,16,55,25.00
2015,08,07,16,56,25.10
2015,08,07,16,57,25.10
2015,08,07,16,58,25.00
2015,08,07,16,59,25.00
2015,08,07,17,00,25.00
2015,08,07,17,01,25.00
2015,08,07,17,02,25.10
2015,08,07,17,03,25.20
2015,08,07,17,04,25.20
2015,08,07,17,05,25.20
2015,08,07,17,06,25.30
2015,08,07,17,07,25.30
2015,08,07,17,08,25.40
2015,08,07,17,09,25.40
2015,08,07,17,10,25.40
2015,08,07,17,11,25.40
2015,08,07,17,12,25.30
2015,08,07,17,13,25.30
2015,08,07,17,14,25.30
2015,08,07,17,15,25.20
2015,08,07,17,16,25.10
2015,08,07,17,17,25.00
2015,08,07,17,18,25.00
2015,08,07,17,19,24.90
2015,08,07,17,20,24.90
2015,08,07,17,21,24.90
2015,08,07,17,22,24.90